This is the latest recevied weather packets stored in our database for station/object F1DKL-13. If no packets are shown the sender has not sent any weather packets the latest 10 day(s).
| Time | Temp. | Humidity | Pressure | Rain* | Wind** | Luminosity | Snow |
|---|---|---|---|---|---|---|---|
| 1777978805 | 13.89° C | 98% | 1018.3 hPa | 2.03 mm | - | - | - |
| 1777978505 | 13.33° C | 98% | 1018.3 hPa | 2.03 mm | - | - | - |
| 1777978205 | 13.33° C | 97% | 1018.3 hPa | 2.03 mm | - | - | - |
| 1777977905 | 13.33° C | 86% | 1018.3 hPa | 2.03 mm | - | - | - |
| 1777977605 | 13.89° C | 80% | 1018.3 hPa | 2.03 mm | - | - | - |
| 1777977305 | 13.89° C | 73% | 1018.3 hPa | 1.02 mm | - | - | - |
| 1777977305 | 13.89° C | 73% | 1018.3 hPa | 1.02 mm | - | - | - |
| 1777977005 | 14.44° C | 69% | 1018.3 hPa | 1.02 mm | - | - | - |
| 1777976705 | 15.56° C | 64% | 1018.3 hPa | 0 mm | - | - | - |
| 1777976405 | 16.11° C | 65% | 1018.3 hPa | 0 mm | - | - | - |
| 1777976105 | 16.67° C | 69% | 1018.3 hPa | 0 mm | - | - | - |
| 1777975805 | 16.67° C | 77% | 1018.3 hPa | 0 mm | - | - | - |
| 1777975505 | 17.22° C | 98% | 1018.3 hPa | 0 mm | - | - | - |
| 1777975205 | 16.67° C | 98% | 1018.3 hPa | 0 mm | - | - | - |
| 1777974905 | 16.11° C | 98% | 1017.2 hPa | 0 mm | - | - | - |
| 1777974605 | 16.11° C | 98% | 1017.2 hPa | 0 mm | - | - | - |
| 1777974605 | 16.11° C | 98% | 1017.2 hPa | 0 mm | - | - | - |
| 1777974305 | 16.11° C | 98% | 1017.2 hPa | 0 mm | - | - | - |
| 1777974005 | 15.56° C | 98% | 1018.3 hPa | 0 mm | - | - | - |
| 1777973705 | 15.56° C | 98% | 1018.3 hPa | 0 mm | - | - | - |
| 1777973405 | 14.44° C | 98% | 1018.3 hPa | 0 mm | - | - | - |
| 1777973105 | 13.89° C | 98% | 1018.3 hPa | 0 mm | - | - | - |
| 1777972805 | 13.89° C | 98% | 1018.3 hPa | 0 mm | - | - | - |
| 1777972505 | 13.89° C | 98% | 1018.3 hPa | 0 mm | - | - | - |
| 1777972205 | 13.33° C | 98% | 1018.3 hPa | 0 mm | - | - | - |
* Rain latest hour (hover to see other rain measurements)
** Current wind speed in m/s (hover to see current wind gust speed)